"SCET";"TARGET";"ELECTRON_DENSITY";"ERROR_FLAG";"ELECTRON_DENSITY_ERROR";"FREQ_FCE";"MEASURED_VALUE";"MEASURED_ITEM";"FREQ_PLASMA";"FREQ_UPPER_HYBRID";"FREQ_R_EQUALS_ZERO";"FREQ_L_EQUALS_ZERO";"ORBIT_NUMBER";"SATURN_RADIUS";"SATURN_IAU_LONGITUDE";"SATURN_SLS4_S_LONGITUDE";"SATURN_SLS4_N_LONGITUDE";"SATURN_SLS5_S_LONGITUDE";"SATURN_SLS5_N_LONGITUDE";"SATURN_LOCAL_TIME";"SATURN_KRONOGRAPHIC_LATITUDE";"SATURN_MAGNETIC_LATITUDE";"SATURN_L";"SATURN_L_OFFSET";"SATURN_SOLAR_EQUATORIAL_X";"SATURN_SOLAR_EQUATORIAL_Y";"SATURN_SOLAR_EQUATORIAL_Z";"SATURN_ALTITUDE";"ENCELADUS_ENCOUNTER_NUMBER";"ENCELADUS_RADIUS";"ENCELADUS_COROTATIONAL_X";"ENCELADUS_COROTATIONAL_Y";"ENCELADUS_COROTATIONAL_Z";"ENCELADUS_TRUE_ANOMALY";"ENCELADUS_PERIAPSIS_TIME";"JUPITER_RADIUS";"JUPITER_SYSTEMIII_LONGITUDE";"JUPITER_MAGNETIC_LATITUDE";"JUPITER_MAGNETIC_LOCAL_TIME";"JUPITER_L";"IO_PHASE";"EARTH_RADIUS";"EARTH_MAGNETIC_LATITUDE";"EARTH_LOCAL_TIME";"EARTH_L"
"[UTC]";"[0=Saturn, 1=Enceladus, 2=Jupiter, 3=Earth]";"[cm-3]";"[0=automated, 1=manual]";"[normalized density error]";"[Hz]";"[Hz]";"[0=upper hybrid frequency, 1=plasma frequency cutoff]";"[Hz]";"[Hz]";"[Hz]";"[Hz}";"[0, A, B, C, 3, 4, ... , 292, 293]";"[Rs where 1Rs=60268km]";"[degrees]";"[degrees]";"[degrees]";"[degrees]";"[degrees]";"[hours]";"[degrees]";"[degrees where offset=2293km north]";"[Rs where 1Rs=60268km]";"[Rs where 1Rs=60268km and offset=2293km north]";"[Rs where 1Rs=60268km]";"[Rs where 1Rs=60268km]";"[Rs where 1Rs=60268km]";"[km where ellipsoid a,b=60268km and c=54364km]";"[E0, E1, E2, ... , E21, E22]";"[Renc where 1Renc=252.1km]";"[Renc where 1Renc=252.1km]";"[Renc where 1Renc=252.1km]";"[Renc where 1Renc=252.1km]";"[degrees]";"[UTC]";"[Rj where 1Rj=71492km]";"[degrees]";"[degrees using JRM09 model]";"[hours using JRM09 model]";"[Rj where 1Rj=71492km]";"[degrees]";"[Re where 1Re=6378.1366km]";"[degrees]";"[hours]";"[Re where 1Re=6378.1366km]"
2015-04-12T00:00:01.622Z;0;2.8290e+01;0;     0.107;  1484.420;  47786.211; 0;  47763.148;  47786.211;  48511.125;  47026.707;214;   6.771;  83.444;;; 352.858; 108.958;  18.135;   0.288;  -0.034;   6.772;   6.764;  -0.240;   6.767;   0.034;;;;;;;;;;;;;;;;;;
2015-04-12T00:00:17.622Z;0;2.5480e+01;0;     0.110;  1484.420;  45349.398; 0;  45325.098;  45349.398;  46073.383;  44588.965;214;   6.773;  83.568;;; 352.981; 109.080;  18.137;   0.288;  -0.034;   6.773;   6.766;  -0.243;   6.768;   0.034;;;;;;;;;;;;;;;;;;
2015-04-12T00:00:33.622Z;0;2.8170e+01;0;     0.110;  1484.420;  47680.688; 0;  47657.574;  47680.688;  48405.562;  46921.145;214;   6.774;  83.691;;; 353.104; 109.202;  18.139;   0.288;  -0.034;   6.774;   6.767;  -0.246;   6.770;   0.034;;;;;;;;;;;;;;;;;;
2015-04-12T00:00:49.622Z;0;2.6940e+01;0;     0.115;  1484.420;  46637.070; 0;  46613.441;  46637.070;  47361.559;  45877.141;214;   6.775;  83.815;;; 353.227; 109.323;  18.141;   0.288;  -0.034;   6.776;   6.768;  -0.250;   6.771;   0.034;;;;;;;;;;;;;;;;;;
2015-04-12T00:01:05.622Z;0;2.5430e+01;0;     0.104;  1499.932;  45311.922; 0;  45287.090;  45311.922;  46043.266;  44543.332;214;   6.777;  83.939;;; 353.350; 109.445;  18.142;   0.288;  -0.034;   6.777;   6.770;  -0.253;   6.772;   0.034;;;;;;;;;;;;;;;;;;
2015-04-12T00:01:21.622Z;0;2.5500e+01;0;     0.104;  1499.932;  45371.344; 0;  45346.543;  45371.344;  46102.711;  44602.777;214;   6.778;  84.063;;; 353.473; 109.567;  18.144;   0.288;  -0.034;   6.778;   6.771;  -0.256;   6.773;   0.034;;;;;;;;;;;;;;;;;;
2015-04-12T00:01:37.621Z;0;2.5790e+01;0;     0.111;  1499.932;  45628.465; 0;  45603.805;  45628.465;  46359.938;  44860.004;214;   6.779;  84.186;;; 353.596; 109.689;  18.146;   0.288;  -0.034;   6.780;   6.772;  -0.259;   6.775;   0.034;;;;;;;;;;;;;;;;;;
2015-04-12T00:01:53.621Z;0;2.9610e+01;0;     0.103;  1499.932;  48885.203; 0;  48862.188;  48885.203;  49617.906;  48117.977;214;   6.781;  84.310;;; 353.719; 109.811;  18.148;   0.288;  -0.034;   6.781;   6.774;  -0.262;   6.776;   0.034;;;;;;;;;;;;;;;;;;
2015-04-12T00:02:09.621Z;0;2.7330e+01;0;     0.101;  1502.900;  46971.445; 0;  46947.395;  46971.445;  47704.859;  46201.961;214;   6.782;  84.434;;; 353.842; 109.933;  18.149;   0.288;  -0.034;   6.782;   6.775;  -0.265;   6.777;   0.034;;;;;;;;;;;;;;;;;;
2015-04-12T00:02:25.621Z;0;2.5240e+01;0;     0.099;  1502.900;  45139.566; 0;  45114.539;  45139.566;  45872.250;  44369.348;214;   6.784;  84.558;;; 353.965; 110.055;  18.151;   0.288;  -0.033;   6.784;   6.776;  -0.269;   6.778;   0.034;;;;;;;;;;;;;;;;;;
2015-04-12T00:02:41.621Z;0;2.5230e+01;0;     0.104;  1502.900;  45128.266; 0;  45103.234;  45128.266;  45860.941;  44358.043;214;   6.785;  84.681;;; 354.088; 110.178;  18.153;   0.288;  -0.033;   6.785;   6.778;  -0.272;   6.780;   0.034;;;;;;;;;;;;;;;;;;
2015-04-12T00:02:57.621Z;0;2.5130e+01;0;     0.101;  1502.900;  45044.988; 0;  45019.910;  45044.988;  45777.629;  44274.730;214;   6.786;  84.805;;; 354.211; 110.300;  18.155;   0.288;  -0.033;   6.786;   6.779;  -0.275;   6.781;   0.034;;;;;;;;;;;;;;;;;;
2015-04-12T00:03:13.621Z;0;2.4980e+01;0;     0.102;  1514.660;  44909.645; 0;  44884.094;  44909.645;  45647.812;  44133.152;214;   6.788;  84.929;;; 354.333; 110.423;  18.156;   0.288;  -0.033;   6.788;   6.780;  -0.278;   6.782;   0.034;;;;;;;;;;;;;;;;;;
2015-04-12T00:03:29.621Z;0;2.5220e+01;0;     0.100;  1514.660;  45125.855; 0;  45100.430;  45125.855;  45864.117;  44349.457;214;   6.789;  85.053;;; 354.456; 110.545;  18.158;   0.288;  -0.033;   6.789;   6.782;  -0.281;   6.783;   0.034;;;;;;;;;;;;;;;;;;
2015-04-12T00:04:01.621Z;0;2.5020e+01;0;     0.103;  1502.536;  44939.363; 0;  44914.238;  44939.363;  45671.789;  44169.254;214;   6.792;  85.300;;; 354.702; 110.790;  18.162;   0.288;  -0.033;   6.792;   6.785;  -0.288;   6.786;   0.034;;;;;;;;;;;;;;;;;;
2015-04-12T00:04:17.620Z;0;2.7520e+01;0;     0.102;  1502.536;  47129.949; 0;  47105.992;  47129.949;  47863.250;  46360.715;214;   6.793;  85.424;;; 354.825; 110.913;  18.163;   0.288;  -0.033;   6.793;   6.786;  -0.291;   6.787;   0.034;;;;;;;;;;;;;;;;;;
2015-04-12T00:04:33.620Z;0;2.5150e+01;0;     0.101;  1502.536;  45059.016; 0;  45033.957;  45059.016;  45791.492;  44288.953;214;   6.794;  85.548;;; 354.948; 111.036;  18.165;   0.288;  -0.033;   6.794;   6.787;  -0.294;   6.788;   0.034;;;;;;;;;;;;;;;;;;
2015-04-12T00:04:49.620Z;0;2.4810e+01;0;     0.104;  1502.536;  44752.035; 0;  44726.805;  44752.035;  45484.383;  43981.844;214;   6.796;  85.672;;; 355.072; 111.159;  18.167;   0.288;  -0.033;   6.796;   6.789;  -0.297;   6.789;   0.034;;;;;;;;;;;;;;;;;;
2015-04-12T00:05:05.620Z;0;2.4970e+01;0;     0.107;  1492.792;  44898.672; 0;  44873.848;  44898.672;  45626.453;  44133.660;214;   6.797;  85.796;;; 355.195; 111.282;  18.169;   0.288;  -0.033;   6.797;   6.790;  -0.300;   6.791;   0.034;;;;;;;;;;;;;;;;;;
2015-04-12T00:05:21.620Z;0;2.7300e+01;0;     0.110;  1492.792;  46940.172; 0;  46916.430;  46940.172;  47668.762;  46175.969;214;   6.798;  85.919;;; 355.318; 111.405;  18.170;   0.288;  -0.033;   6.799;   6.791;  -0.303;   6.792;   0.034;;;;;;;;;;;;;;;;;;
2015-04-12T00:05:37.620Z;0;2.5280e+01;0;     0.106;  1492.792;  45179.785; 0;  45155.117;  45179.785;  45907.680;  44414.891;214;   6.800;  86.043;;; 355.441; 111.528;  18.172;   0.288;  -0.033;   6.800;   6.793;  -0.307;   6.793;   0.034;;;;;;;;;;;;;;;;;;
2015-04-12T00:05:53.620Z;0;2.5760e+01;0;     0.107;  1492.792;  45605.742; 0;  45581.305;  45605.742;  46333.812;  44841.020;214;   6.801;  86.167;;; 355.564; 111.652;  18.174;   0.288;  -0.033;   6.801;   6.794;  -0.310;   6.794;   0.034;;;;;;;;;;;;;;;;;;
2015-04-12T00:06:09.620Z;0;2.7470e+01;0;     0.107;  1487.948;  47086.801; 0;  47063.285;  47086.801;  47813.141;  46325.191;214;   6.802;  86.291;;; 355.687; 111.775;  18.176;   0.288;  -0.033;   6.803;   6.795;  -0.313;   6.795;   0.034;;;;;;;;;;;;;;;;;;
2015-04-12T00:06:25.620Z;0;2.5030e+01;0;     0.104;  1487.948;  44947.598; 0;  44922.961;  44947.598;  45673.098;  44185.148;214;   6.804;  86.415;;; 355.810; 111.899;  18.177;   0.288;  -0.033;   6.804;   6.797;  -0.316;   6.797;   0.034;;;;;;;;;;;;;;;;;;
2015-04-12T00:06:41.620Z;0;2.5280e+01;0;     0.101;  1487.948;  45174.242; 0;  45149.730;  45174.242;  45899.832;  44411.887;214;   6.805;  86.539;;; 355.933; 112.022;  18.179;   0.288;  -0.033;   6.805;   6.798;  -0.319;   6.798;   0.034;;;;;;;;;;;;;;;;;;
2015-04-12T00:06:57.619Z;0;2.5680e+01;0;     0.105;  1487.948;  45534.832; 0;  45510.516;  45534.832;  46260.570;  44772.621;214;   6.807;  86.663;;; 356.056; 112.146;  18.181;   0.288;  -0.033;   6.807;   6.799;  -0.323;   6.799;   0.034;;;;;;;;;;;;;;;;;;
2015-04-12T00:07:13.619Z;0;2.5290e+01;0;     0.103;  1471.120;  45183.422; 0;  45159.465;  45183.422;  45901.016;  44429.898;214;   6.808;  86.787;;; 356.179; 112.269;  18.183;   0.288;  -0.033;   6.808;   6.801;  -0.326;   6.800;   0.034;;;;;;;;;;;;;;;;;;
2015-04-12T00:07:29.619Z;0;2.7250e+01;0;     0.102;  1471.120;  46902.625; 0;  46879.547;  46902.625;  47620.879;  46149.758;214;   6.809;  86.911;;; 356.302; 112.393;  18.184;   0.288;  -0.032;   6.809;   6.802;  -0.329;   6.801;   0.034;;;;;;;;;;;;;;;;;;
2015-04-12T00:07:45.619Z;0;2.6920e+01;0;     0.105;  1471.120;  46613.570; 0;  46590.352;  46613.570;  47331.715;  45860.598;214;   6.811;  87.035;;; 356.426; 112.517;  18.186;   0.288;  -0.032;   6.811;   6.804;  -0.332;   6.803;   0.034;;;;;;;;;;;;;;;;;;
2015-04-12T00:08:01.619Z;0;2.6450e+01;0;     0.111;  1494.892;  46208.188; 0;  46184.000;  46208.188;  46937.496;  45442.602;214;   6.812;  87.159;;; 356.549; 112.641;  18.188;   0.288;  -0.032;   6.812;   6.805;  -0.335;   6.804;   0.034;;;;;;;;;;;;;;;;;;
2015-04-12T00:08:17.619Z;0;2.4940e+01;0;     0.106;  1494.892;  44869.742; 0;  44844.832;  44869.742;  45598.508;  44103.617;214;   6.813;  87.283;;; 356.672; 112.765;  18.190;   0.288;  -0.032;   6.813;   6.806;  -0.338;   6.805;   0.034;;;;;;;;;;;;;;;;;;
2015-04-12T00:08:33.619Z;0;2.4830e+01;0;     0.113;  1494.892;  44768.398; 0;  44743.434;  44768.398;  45497.121;  44002.230;214;   6.815;  87.407;;; 356.795; 112.889;  18.191;   0.288;  -0.032;   6.815;   6.808;  -0.342;   6.806;   0.034;;;;;;;;;;;;;;;;;;
2015-04-12T00:08:49.619Z;0;2.5000e+01;0;     0.108;  1494.892;  44926.098; 0;  44901.219;  44926.098;  45654.887;  44159.996;214;   6.816;  87.531;;; 356.918; 113.013;  18.193;   0.288;  -0.032;   6.816;   6.809;  -0.345;   6.807;   0.034;;;;;;;;;;;;;;;;;;
2015-04-12T00:09:05.619Z;0;2.6520e+01;0;     0.118;  1474.032;  46269.520; 0;  46246.035;  46269.520;  46988.922;  45514.891;214;   6.817;  87.655;;; 357.042; 113.137;  18.195;   0.288;  -0.032;   6.818;   6.810;  -0.348;   6.809;   0.034;;;;;;;;;;;;;;;;;;
2015-04-12T00:09:21.619Z;0;2.4720e+01;0;     0.116;  1474.032;  44673.777; 0;  44649.453;  44673.777;  45392.551;  43918.520;214;   6.819;  87.779;;; 357.165; 113.262;  18.197;   0.287;  -0.032;   6.819;   6.812;  -0.351;   6.810;   0.034;;;;;;;;;;;;;;;;;;
2015-04-12T00:09:37.618Z;0;2.4780e+01;0;     0.109;  1474.032;  44730.496; 0;  44706.203;  44730.496;  45449.293;  43975.262;214;   6.820;  87.903;;; 357.288; 113.386;  18.198;   0.287;  -0.032;   6.820;   6.813;  -0.354;   6.811;   0.034;;;;;;;;;;;;;;;;;;
2015-04-12T00:09:53.618Z;0;2.7040e+01;0;     0.105;  1474.032;  46719.434; 0;  46696.176;  46719.434;  47439.008;  45964.973;214;   6.821;  88.027;;; 357.411; 113.511;  18.200;   0.287;  -0.032;   6.822;   6.814;  -0.357;   6.812;   0.034;;;;;;;;;;;;;;;;;;
2015-04-12T00:10:09.618Z;0;2.6640e+01;0;     0.118;  1464.484;  46369.883; 0;  46346.750;  46369.883;  47084.777;  45620.293;214;   6.823;  88.151;;; 357.535; 113.634;  18.202;   0.287;  -0.032;   6.823;   6.816;  -0.361;   6.813;   0.034;;;;;;;;;;;;;;;;;;
2015-04-12T00:10:25.618Z;0;2.4750e+01;0;     0.115;  1464.484;  44699.652; 0;  44675.656;  44699.652;  45413.898;  43949.414;214;   6.824;  88.275;;; 357.660; 113.758;  18.204;   0.287;  -0.032;   6.824;   6.817;  -0.364;   6.815;   0.034;;;;;;;;;;;;;;;;;;
2015-04-12T00:10:41.618Z;0;2.5780e+01;0;     0.113;  1464.484;  45622.387; 0;  45598.875;  45622.387;  46336.996;  44872.512;214;   6.826;  88.399;;; 357.785; 113.881;  18.205;   0.287;  -0.032;   6.826;   6.818;  -0.367;   6.816;   0.034;;;;;;;;;;;;;;;;;;
2015-04-12T00:10:57.618Z;0;2.5350e+01;0;     0.108;  1464.484;  45237.098; 0;  45213.387;  45237.098;  45951.559;  44487.074;214;   6.827;  88.523;;; 357.910; 114.004;  18.207;   0.287;  -0.032;   6.827;   6.820;  -0.370;   6.817;   0.034;;;;;;;;;;;;;;;;;;
2015-04-12T00:11:13.618Z;0;2.5460e+01;0;     0.112;  1469.216;  45339.172; 0;  45315.359;  45339.172;  46055.922;  44586.707;214;   6.828;  88.647;;; 358.034; 114.128;  18.209;   0.287;  -0.032;   6.828;   6.821;  -0.373;   6.818;   0.034;;;;;;;;;;;;;;;;;;
2015-04-12T00:11:29.618Z;0;2.5030e+01;0;     0.108;  1469.216;  44950.820; 0;  44926.805;  44950.820;  45667.418;  44198.199;214;   6.830;  88.771;;; 358.159; 114.251;  18.211;   0.287;  -0.032;   6.830;   6.823;  -0.376;   6.819;   0.034;;;;;;;;;;;;;;;;;;
2015-04-12T00:11:45.618Z;0;2.3870e+01;0;     0.138;  1469.216;  43896.832; 0;  43872.238;  43896.832;  44612.996;  43143.781;214;   6.831;  88.895;;; 358.285; 114.374;  18.212;   0.287;  -0.032;   6.831;   6.824;  -0.380;   6.821;   0.034;;;;;;;;;;;;;;;;;;
2015-04-12T00:12:01.618Z;0;2.2650e+01;0;     0.150;  1444.828;  42760.406; 0;  42735.988;  42760.406;  43464.508;  42019.680;214;   6.832;  89.020;;; 358.410; 114.498;  18.214;   0.287;  -0.032;   6.833;   6.825;  -0.383;   6.822;   0.034;;;;;;;;;;;;;;;;;;
2015-04-12T00:12:17.617Z;0;2.5760e+01;0;     0.112;  1444.828;  45601.527; 0;  45578.633;  45601.527;  46306.773;  44861.945;214;   6.834;  89.144;;; 358.535; 114.621;  18.216;   0.287;  -0.032;   6.834;   6.827;  -0.386;   6.823;   0.034;;;;;;;;;;;;;;;;;;
2015-04-12T00:12:33.617Z;0;2.5460e+01;0;     0.113;  1444.828;  45338.324; 0;  45315.297;  45338.324;  46043.469;  44598.641;214;   6.835;  89.268;;; 358.660; 114.744;  18.217;   0.287;  -0.032;   6.835;   6.828;  -0.389;   6.824;   0.034;;;;;;;;;;;;;;;;;;
2015-04-12T00:12:49.617Z;0;2.8230e+01;0;     0.109;  1444.828;  47734.863; 0;  47712.992;  47734.863;  48440.875;  46996.047;214;   6.837;  89.392;;; 358.786; 114.868;  18.219;   0.287;  -0.031;   6.837;   6.829;  -0.392;   6.825;   0.034;;;;;;;;;;;;;;;;;;
2015-04-12T00:13:05.617Z;0;2.5380e+01;0;     0.111;  1469.132;  45264.137; 0;  45240.289;  45264.137;  45980.816;  44511.688;214;   6.838;  89.516;;; 358.911; 114.991;  18.221;   0.287;  -0.031;   6.838;   6.831;  -0.396;   6.827;   0.034;;;;;;;;;;;;;;;;;;
2015-04-12T00:13:21.617Z;0;2.5070e+01;0;     0.109;  1469.132;  44986.105; 0;  44962.109;  44986.105;  45702.676;  44233.543;214;   6.839;  89.640;;; 359.037; 115.114;  18.223;   0.287;  -0.031;   6.839;   6.832;  -0.399;   6.828;   0.034;;;;;;;;;;;;;;;;;;
2015-04-12T00:13:53.617Z;0;2.4760e+01;0;     0.112;  1469.132;  44705.672; 0;  44681.527;  44705.672;  45422.129;  43952.996;214;   6.842;  89.889;;; 359.288; 115.361;  18.226;   0.287;  -0.031;   6.842;   6.835;  -0.405;   6.830;   0.034;;;;;;;;;;;;;;;;;;
2015-04-12T00:14:09.617Z;0;2.4420e+01;0;     0.118;  1472.240;  44397.742; 0;  44373.324;  44397.742;  45115.551;  43643.312;214;   6.843;  90.013;;; 359.414; 115.484;  18.228;   0.287;  -0.031;   6.844;   6.836;  -0.408;   6.831;   0.034;;;;;;;;;;;;;;;;;;
2015-04-12T00:14:25.617Z;0;2.4340e+01;0;     0.109;  1472.240;  44329.016; 0;  44304.562;  44329.016;  45046.797;  43574.555;214;   6.845;  90.137;;; 359.540; 115.608;  18.230;   0.287;  -0.031;   6.845;   6.838;  -0.411;   6.832;   0.034;;;;;;;;;;;;;;;;;;
2015-04-12T00:14:41.617Z;0;2.4850e+01;0;     0.112;  1472.240;  44790.809; 0;  44766.605;  44790.809;  45508.777;  44036.539;214;   6.846;  90.261;;; 359.666; 115.731;  18.231;   0.287;  -0.031;   6.846;   6.839;  -0.415;   6.834;   0.034;;;;;;;;;;;;;;;;;;
2015-04-12T00:14:57.616Z;0;2.7120e+01;0;     0.113;  1472.240;  46786.020; 0;  46762.852;  46786.020;  47504.762;  46032.523;214;   6.847;  90.386;;; 359.792; 115.855;  18.233;   0.287;  -0.031;   6.848;   6.840;  -0.418;   6.835;   0.034;;;;;;;;;;;;;;;;;;
2015-04-12T00:15:13.616Z;0;2.4910e+01;0;     0.114;  1447.740;  44841.898; 0;  44818.523;  44841.898;  45548.238;  44100.496;214;   6.849;  90.510;;; 359.918; 115.978;  18.235;   0.287;  -0.031;   6.849;   6.842;  -0.421;   6.836;   0.034;;;;;;;;;;;;;;;;;;
2015-04-12T00:15:29.616Z;0;2.4690e+01;0;     0.109;  1447.740;  44646.707; 0;  44623.227;  44646.707;  45352.969;  43905.230;214;   6.850;  90.634;;;   0.045; 116.102;  18.236;   0.287;  -0.031;   6.850;   6.843;  -0.424;   6.837;   0.034;;;;;;;;;;;;;;;;;;
2015-04-12T00:15:45.616Z;0;2.7740e+01;0;     0.102;  1447.740;  47320.973; 0;  47298.820;  47320.973;  48028.230;  46580.488;214;   6.852;  90.759;;;   0.171; 116.225;  18.238;   0.287;  -0.031;   6.852;   6.844;  -0.427;   6.838;   0.034;;;;;;;;;;;;;;;;;;
2015-04-12T00:16:01.616Z;0;2.4850e+01;0;     0.101;  1450.316;  44792.859; 0;  44769.375;  44792.859;  45500.406;  44050.090;214;   6.853;  90.883;;;   0.298; 116.349;  18.240;   0.287;  -0.031;   6.853;   6.846;  -0.430;   6.840;   0.034;;;;;;;;;;;;;;;;;;
2015-04-12T00:16:17.616Z;0;2.4610e+01;0;     0.105;  1450.316;  44572.387; 0;  44548.785;  44572.387;  45279.844;  43829.527;214;   6.854;  91.007;;;   0.424; 116.472;  18.242;   0.287;  -0.031;   6.855;   6.847;  -0.434;   6.841;   0.034;;;;;;;;;;;;;;;;;;
2015-04-12T00:16:33.616Z;0;2.5100e+01;0;     0.100;  1450.316;  45009.891; 0;  44986.520;  45009.891;  45717.520;  44267.203;214;   6.856;  91.131;;;   0.551; 116.596;  18.243;   0.287;  -0.031;   6.856;   6.849;  -0.437;   6.842;   0.034;;;;;;;;;;;;;;;;;;
2015-04-12T00:16:49.616Z;0;2.7390e+01;0;     0.094;  1450.316;  47018.055; 0;  46995.680;  47018.055;  47726.434;  46276.117;214;   6.857;  91.256;;;   0.677; 116.719;  18.245;   0.287;  -0.031;   6.857;   6.850;  -0.440;   6.843;   0.034;;;;;;;;;;;;;;;;;;
2015-04-12T00:17:05.616Z;0;2.6380e+01;0;     0.112;  1411.536;  46147.949; 0;  46126.355;  46147.949;  46837.523;  45425.988;214;   6.858;  91.380;;;   0.804; 116.843;  18.247;   0.287;  -0.031;   6.859;   6.851;  -0.443;   6.844;   0.034;;;;;;;;;;;;;;;;;;
2015-04-12T00:17:21.615Z;0;2.4800e+01;0;     0.099;  1411.536;  44742.559; 0;  44720.289;  44742.559;  45431.625;  44020.090;214;   6.860;  91.504;;;   0.931; 116.966;  18.249;   0.287;  -0.031;   6.860;   6.853;  -0.446;   6.845;   0.034;;;;;;;;;;;;;;;;;;
2015-04-12T00:17:37.615Z;0;2.7700e+01;0;     0.094;  1411.536;  47281.348; 0;  47260.273;  47281.348;  47971.309;  46559.773;214;   6.861;  91.629;;;   1.058; 117.090;  18.250;   0.287;  -0.031;   6.861;   6.854;  -0.449;   6.847;   0.034;;;;;;;;;;;;;;;;;;
2015-04-12T00:17:53.615Z;0;2.7370e+01;0;     0.096;  1411.536;  47003.047; 0;  46981.848;  47003.047;  47692.918;  46281.379;214;   6.863;  91.753;;;   1.185; 117.213;  18.252;   0.287;  -0.031;   6.863;   6.855;  -0.453;   6.848;   0.034;;;;;;;;;;;;;;;;;;
2015-04-12T00:18:09.615Z;0;2.5120e+01;0;     0.096;  1424.304;  45033.852; 0;  45011.324;  45033.852;  45729.109;  44304.805;214;   6.864;  91.877;;;   1.312; 117.337;  18.254;   0.287;  -0.031;   6.864;   6.857;  -0.456;   6.849;   0.034;;;;;;;;;;;;;;;;;;
2015-04-12T00:18:25.615Z;0;2.4880e+01;0;     0.101;  1424.304;  44811.238; 0;  44788.598;  44811.238;  45506.410;  44082.105;214;   6.865;  92.002;;;   1.439; 117.460;  18.255;   0.287;  -0.030;   6.866;   6.858;  -0.459;   6.850;   0.034;;;;;;;;;;;;;;;;;;
2015-04-12T00:18:41.615Z;0;2.6770e+01;0;     0.107;  1424.304;  46482.438; 0;  46460.609;  46482.438;  47178.219;  45753.918;214;   6.867;  92.126;;;   1.566; 117.584;  18.257;   0.287;  -0.030;   6.867;   6.860;  -0.462;   6.851;   0.034;;;;;;;;;;;;;;;;;;
2015-04-12T00:18:57.615Z;0;2.5340e+01;0;     0.097;  1424.304;  45223.625; 0;  45201.191;  45223.625;  45918.953;  44494.648;214;   6.868;  92.251;;;   1.693; 117.707;  18.259;   0.287;  -0.030;   6.868;   6.861;  -0.465;   6.852;   0.034;;;;;;;;;;;;;;;;;;
2015-04-12T00:19:13.615Z;0;2.4210e+01;0;     0.106;  1432.284;  44204.645; 0;  44181.434;  44204.645;  44903.379;  43471.098;214;   6.869;  92.375;;;   1.821; 117.831;  18.261;   0.287;  -0.030;   6.870;   6.862;  -0.468;   6.854;   0.034;;;;;;;;;;;;;;;;;;
2015-04-12T00:19:29.615Z;0;2.5670e+01;0;     0.105;  1432.284;  45524.504; 0;  45501.969;  45524.504;  46223.746;  44791.461;214;   6.871;  92.499;;;   1.948; 117.955;  18.262;   0.287;  -0.030;   6.871;   6.864;  -0.472;   6.855;   0.034;;;;;;;;;;;;;;;;;;
2015-04-12T00:19:45.615Z;0;2.6370e+01;0;     0.110;  1432.284;  46135.414; 0;  46113.176;  46135.414;  46834.879;  45402.594;214;   6.872;  92.624;;;   2.076; 118.078;  18.264;   0.287;  -0.030;   6.872;   6.865;  -0.475;   6.856;   0.034;;;;;;;;;;;;;;;;;;
2015-04-12T00:20:01.614Z;0;2.4320e+01;0;     0.112;  1456.364;  44308.559; 0;  44284.617;  44308.559;  45018.785;  43562.422;214;   6.874;  92.748;;;   2.203; 118.202;  18.266;   0.287;  -0.030;   6.874;   6.866;  -0.478;   6.857;   0.034;;;;;;;;;;;;;;;;;;
2015-04-12T00:20:17.614Z;0;2.4210e+01;0;     0.116;  1456.364;  44204.938; 0;  44180.941;  44204.938;  44915.121;  43458.758;214;   6.875;  92.873;;;   2.328; 118.326;  18.267;   0.287;  -0.030;   6.875;   6.868;  -0.481;   6.858;   0.034;;;;;;;;;;;;;;;;;;
2015-04-12T00:20:33.614Z;0;2.3980e+01;0;     0.111;  1456.364;  44000.348; 0;  43976.238;  44000.348;  44710.449;  43254.086;214;   6.876;  92.997;;;   2.453; 118.449;  18.269;   0.287;  -0.030;   6.877;   6.869;  -0.484;   6.859;   0.034;;;;;;;;;;;;;;;;;;
2015-04-12T00:20:49.614Z;0;2.3180e+01;0;     0.099;  1456.364;  43255.020; 0;  43230.496;  43255.020;  43964.809;  42508.445;214;   6.878;  93.122;;;   2.578; 118.573;  18.271;   0.287;  -0.030;   6.878;   6.871;  -0.487;   6.861;   0.034;;;;;;;;;;;;;;;;;;
2015-04-12T00:21:05.614Z;0;2.4700e+01;0;     0.106;  1420.720;  44648.070; 0;  44625.461;  44648.070;  45341.473;  43920.754;214;   6.879;  93.246;;;   2.702; 118.697;  18.273;   0.287;  -0.030;   6.879;   6.872;  -0.491;   6.862;   0.034;;;;;;;;;;;;;;;;;;
2015-04-12T00:21:21.614Z;0;2.5670e+01;0;     0.112;  1420.720;  45522.141; 0;  45499.965;  45522.141;  46215.871;  44795.148;214;   6.881;  93.371;;;   2.827; 118.820;  18.274;   0.287;  -0.030;   6.881;   6.873;  -0.494;   6.863;   0.034;;;;;;;;;;;;;;;;;;
2015-04-12T00:21:37.614Z;0;2.4940e+01;0;     0.101;  1420.720;  44872.469; 0;  44849.973;  44872.469;  45565.957;  44145.238;214;   6.882;  93.495;;;   2.952; 118.944;  18.276;   0.287;  -0.030;   6.882;   6.875;  -0.497;   6.864;   0.034;;;;;;;;;;;;;;;;;;
2015-04-12T00:21:53.614Z;0;2.4510e+01;0;     0.109;  1420.720;  44484.715; 0;  44462.023;  44484.715;  45178.055;  43757.336;214;   6.883;  93.620;;;   3.076; 119.068;  18.278;   0.287;  -0.030;   6.883;   6.876;  -0.500;   6.865;   0.034;;;;;;;;;;;;;;;;;;
2015-04-12T00:22:09.614Z;0;2.4760e+01;0;     0.106;  1443.232;  44703.559; 0;  44680.254;  44703.559;  45407.699;  43964.465;214;   6.885;  93.744;;;   3.201; 119.191;  18.279;   0.287;  -0.030;   6.885;   6.878;  -0.503;   6.866;   0.034;;;;;;;;;;;;;;;;;;
2015-04-12T00:22:25.614Z;0;2.3250e+01;0;     0.104;  1443.232;  43321.605; 0;  43297.559;  43321.605;  44025.188;  42581.957;214;   6.886;  93.869;;;   3.325; 119.315;  18.281;   0.287;  -0.030;   6.886;   6.879;  -0.507;   6.868;   0.034;;;;;;;;;;;;;;;;;;
2015-04-12T00:22:41.613Z;0;2.3310e+01;0;     0.103;  1443.232;  43380.426; 0;  43356.410;  43380.426;  44084.031;  42640.801;214;   6.887;  93.993;;;   3.450; 119.439;  18.283;   0.287;  -0.030;   6.888;   6.880;  -0.510;   6.869;   0.034;;;;;;;;;;;;;;;;;;
2015-04-12T00:22:57.613Z;0;2.4250e+01;0;     0.119;  1443.232;  44244.398; 0;  44220.852;  44244.398;  44948.355;  43505.125;214;   6.889;  94.118;;;   3.574; 119.563;  18.284;   0.287;  -0.030;   6.889;   6.882;  -0.513;   6.870;   0.034;;;;;;;;;;;;;;;;;;